Location: Ammerl�gen
(47.2167°N, 9.6000°E)
Time: 15:48:45
(UTC+00:00)

O/OREOS (USA 219) - Visible Passes

Search period start: 03 December 2021 00:00
Search period end: 13 December 2021 00:00
Orbit: 621 x 646 km, 72.0° (Epoch: 22 May)

Date Brightness Start Highest point End Pass type
(mag) Time Alt. Az. Time Alt. Az. Time Alt. Az.
09 Dec ? 17:21:49 10° NNE 17:21:51 10° NNE 17:21:51 10° NNE visible
10 Dec ? 17:43:02 10° N 17:43:53 14° N 17:43:53 14° N visible
11 Dec ? 18:04:41 10° NNW 18:06:02 18° N 18:06:02 18° N visible
12 Dec ? 16:48:28 10° N 16:50:50 15° NE 16:50:50 15° NE visible
12 Dec ? 18:26:38 10° NNW 18:28:19 22° NNW 18:28:19 22° NNW visible
